Weather in Korets

Ukraine / Rovno District     50˚37′01″N   27˚09′38″E
temp.,
°C
wind,
m/s
gust,
m/s
humid.,
%
clouds,
%
prec.,
mm/h
press.,
hPa
HPBL,
m
2 december, wed
wed223:00−4˚ne25850 0.0 1029153
02:00−4˚ne359326 0.1 1029205
05:00−3˚ne259678 0.1 1028225
08:00−3˚ne249788 0.2 1028189
11:00−2˚ene248678 0.0 1028326
14:00−1˚ese238186 0.1 1026490
17:00−1˚se2384100 0.0 1025301
20:00−1˚sse2582100 0.1 1026430
3 december, thu
thu323:00−1˚se3689100 0.0 1025371
02:00−1˚se3785100 0.1 1025375
05:00−1˚se498597 0.0 1024416
08:00−2˚se379178 0.0 1023301
11:00+1˚se61085100 0.0 1023558
14:00+2˚sse6981100 0.0 1022770
17:00+1˚se61288100 0.0 1021543
20:00+1˚se61292100 0.0 1021544
4 december, fri
fri423:00+2˚se61392100 0.0 1020565
02:00+2˚se61295100 0.0 1019453
05:00+3˚se71393100 0.0 1018667
08:00+2˚sse7138996 0.0 1018730
11:00+4˚sse91581100 0.0 1018831
14:00+6˚sse81475100 0.0 1017914
17:00+6˚se8158499 0.0 1017791
20:00+6˚se81583100 0.0 1018734
5 december, sat
sat523:00+6˚se81485100 0.0 1019677
02:00+6˚se71484100 0.0 1019669
05:00+6˚se71384100 0.0 1019683
08:00+6˚se81483100 0.0 1020777
11:00+7˚se9147898 0.0 1021904
14:00+6˚se9137799 0.0 1021894
17:00+5˚se81379100 0.0 1022792
20:00+4˚se8148397 0.0 1023698
6 december, sun
sun623:00+3˚se81281100 0.0 1024721
02:00+1˚se81281100 0.0 1024640
05:00se8128797 0.0 1025603
08:00se8128598 0.0 1025648
11:00+1˚se81278100 0.0 1025669
14:00+1˚se8136997 0.0 1024718
17:00se715743 0.0 1024684
20:00−1˚se916732 0.0 1024666